SWA222 KMDW-KOMA

Flight info

Callsign SWA222
Flight time 1h 7m
Altitude 38000
Route PEKUE OBENE DSM LANTK2
Aircraft B737/M-SDE2E3FGHIRWXY/LB1

Departure

Time 2026-04-21 00:22
Airport Chicago Midway International Airport (KMDW)

Arrival

Time 2026-04-21 01:29
Airport Eppley Airfield (KOMA)
Time Latitude Longitude Altitude Speed Heading
2026-04-21 00:05 41.78779 -87.74487 636 ft 0 kts 133°
2026-04-21 00:17 41.78795 -87.74510 635 ft 4 kts 133°
2026-04-21 00:18 41.78810 -87.74531 628 ft 4 kts 118°
2026-04-21 00:18 41.78810 -87.74556 630 ft 4 kts 45°
2026-04-21 00:18 41.78798 -87.74572 630 ft 0 kts 44°
2026-04-21 00:20 41.78801 -87.74568 632 ft 2 kts 41°
2026-04-21 00:20 41.78822 -87.74557 635 ft 5 kts 21°
2026-04-21 00:20 41.78867 -87.74533 632 ft 9 kts 21°
2026-04-21 00:21 41.78931 -87.74490 630 ft 12 kts 43°
2026-04-21 00:21 41.79000 -87.74402 635 ft 15 kts 44°
2026-04-21 00:21 41.79080 -87.74300 633 ft 16 kts 44°
2026-04-21 00:21 41.79167 -87.74294 628 ft 15 kts 302°
2026-04-21 00:22 41.79139 -87.74384 630 ft 15 kts 222°
2026-04-21 00:22 41.78836 -87.74768 629 ft 106 kts 224°
2026-04-21 00:22 41.78149 -87.75662 964 ft 154 kts 221°
2026-04-21 00:22 41.77359 -87.76687 2068 ft 158 kts 221°
2026-04-21 00:23 41.76590 -87.77703 3231 ft 163 kts 236°
2026-04-21 00:23 41.76402 -87.79362 3798 ft 203 kts 270°
2026-04-21 00:23 41.76536 -87.81394 4241 ft 229 kts 272°
2026-04-21 00:23 41.76640 -87.83552 5119 ft 239 kts 274°
2026-04-21 00:24 41.76769 -87.85821 5890 ft 251 kts 276°
2026-04-21 00:24 41.76893 -87.88157 7206 ft 246 kts 277°
2026-04-21 00:24 41.76983 -87.90442 8478 ft 247 kts 276°
2026-04-21 00:24 41.77081 -87.92765 9630 ft 251 kts 277°
2026-04-21 00:25 41.77184 -87.95117 10645 ft 260 kts 277°
2026-04-21 00:25 41.77294 -87.97669 10991 ft 291 kts 277°
2026-04-21 00:25 41.77408 -88.00507 11411 ft 315 kts 277°
2026-04-21 00:25 41.77515 -88.03476 12319 ft 322 kts 277°
2026-04-21 00:26 41.77614 -88.06461 13376 ft 325 kts 277°
2026-04-21 00:26 41.77710 -88.09494 14353 ft 329 kts 277°
2026-04-21 00:26 41.77807 -88.12588 15234 ft 334 kts 277°
2026-04-21 00:26 41.77903 -88.15719 16142 ft 338 kts 277°
2026-04-21 00:27 41.77999 -88.18884 17054 ft 342 kts 278°
2026-04-21 00:27 41.78097 -88.22102 17933 ft 347 kts 278°
2026-04-21 00:27 41.78194 -88.25352 18761 ft 352 kts 278°
2026-04-21 00:27 41.78292 -88.28661 19531 ft 355 kts 278°
2026-04-21 00:28 41.78387 -88.31939 20298 ft 358 kts 278°
2026-04-21 00:28 41.78484 -88.35300 21063 ft 362 kts 279°
2026-04-21 00:28 41.78581 -88.38688 21811 ft 366 kts 279°
2026-04-21 00:28 41.78678 -88.42113 22541 ft 370 kts 279°
2026-04-21 00:29 41.78775 -88.45570 23259 ft 373 kts 279°
2026-04-21 00:29 41.78872 -88.49070 23916 ft 377 kts 279°
2026-04-21 00:29 41.78968 -88.52590 24514 ft 380 kts 279°
2026-04-21 00:29 41.79064 -88.56141 25077 ft 383 kts 279°
2026-04-21 00:30 41.79161 -88.59733 25624 ft 386 kts 279°
2026-04-21 00:30 41.79256 -88.63345 26175 ft 390 kts 279°
2026-04-21 00:30 41.79351 -88.66992 26705 ft 393 kts 279°
2026-04-21 00:30 41.79445 -88.70622 27203 ft 396 kts 279°
2026-04-21 00:31 41.79540 -88.74341 27698 ft 400 kts 279°
2026-04-21 00:31 41.79635 -88.78078 28200 ft 403 kts 279°
2026-04-21 00:31 41.79732 -88.81846 28663 ft 405 kts 279°
2026-04-21 00:31 41.79911 -88.85624 29090 ft 407 kts 281°
2026-04-21 00:32 41.80152 -88.89418 29580 ft 408 kts 282°
2026-04-21 00:32 41.80410 -88.93226 30038 ft 411 kts 282°
2026-04-21 00:32 41.80665 -88.97004 30457 ft 413 kts 281°
2026-04-21 00:32 41.80913 -89.00834 30973 ft 411 kts 281°
2026-04-21 00:33 41.81149 -89.04639 31590 ft 407 kts 281°
2026-04-21 00:33 41.81377 -89.08409 32139 ft 405 kts 281°
2026-04-21 00:33 41.81602 -89.12167 32629 ft 403 kts 282°
2026-04-21 00:33 41.81825 -89.15917 33094 ft 403 kts 282°
2026-04-21 00:34 41.82045 -89.19658 33589 ft 401 kts 282°
2026-04-21 00:34 41.82262 -89.23375 34076 ft 399 kts 282°
2026-04-21 00:34 41.82478 -89.27088 34458 ft 398 kts 282°
2026-04-21 00:34 41.82692 -89.30783 34815 ft 398 kts 281°
2026-04-21 00:35 41.82904 -89.34441 35122 ft 398 kts 281°
2026-04-21 00:35 41.83117 -89.38148 35470 ft 398 kts 281°
2026-04-21 00:35 41.83327 -89.41846 35825 ft 397 kts 281°
2026-04-21 00:35 41.83537 -89.45551 36140 ft 397 kts 281°
2026-04-21 00:36 41.83745 -89.49249 36438 ft 398 kts 281°
2026-04-21 00:36 41.83953 -89.52963 36762 ft 398 kts 281°
2026-04-21 00:36 41.84156 -89.56616 37067 ft 397 kts 280°
2026-04-21 00:36 41.84361 -89.60313 37361 ft 398 kts 280°
2026-04-21 00:37 41.84565 -89.64014 37664 ft 397 kts 280°
2026-04-21 00:37 41.84768 -89.67711 37928 ft 398 kts 280°
2026-04-21 00:37 41.84939 -89.71426 38180 ft 401 kts 277°
2026-04-21 00:38 41.84461 -89.79037 38216 ft 412 kts 270°
2026-04-21 00:38 41.83751 -89.86593 38203 ft 407 kts 270°
2026-04-21 00:39 41.83055 -89.94084 38217 ft 404 kts 270°
2026-04-21 00:39 41.82377 -90.01556 38174 ft 403 kts 270°
2026-04-21 00:40 41.81705 -90.09002 38183 ft 402 kts 270°
2026-04-21 00:40 41.81034 -90.16392 38190 ft 401 kts 270°
2026-04-21 00:41 41.80354 -90.23831 38181 ft 401 kts 270°
2026-04-21 00:41 41.79669 -90.31261 38185 ft 401 kts 270°
2026-04-21 00:42 41.78980 -90.38695 38158 ft 402 kts 270°
2026-04-21 00:42 41.78286 -90.46120 38183 ft 402 kts 270°
2026-04-21 00:43 41.77589 -90.53511 38190 ft 402 kts 270°
2026-04-21 00:43 41.76884 -90.60949 38170 ft 402 kts 269°
2026-04-21 00:44 41.76173 -90.68388 38175 ft 402 kts 269°
2026-04-21 00:44 41.75457 -90.75838 38172 ft 403 kts 269°
2026-04-21 00:45 41.74378 -90.86954 38182 ft 403 kts 269°
2026-04-21 00:45 41.73650 -90.94399 38172 ft 403 kts 269°
2026-04-21 00:46 41.72918 -91.01830 38177 ft 403 kts 269°
2026-04-21 00:46 41.72181 -91.09260 38175 ft 402 kts 269°
2026-04-21 00:47 41.71439 -91.16692 38146 ft 402 kts 269°
2026-04-21 00:47 41.70693 -91.24109 38157 ft 401 kts 269°
2026-04-21 00:48 41.69950 -91.31457 38157 ft 401 kts 269°
2026-04-21 00:48 41.69197 -91.38851 38150 ft 400 kts 269°
2026-04-21 00:49 41.68441 -91.46236 38149 ft 400 kts 268°
2026-04-21 00:49 41.67679 -91.53616 38122 ft 400 kts 268°
2026-04-21 00:50 41.66919 -91.60940 38138 ft 400 kts 268°
2026-04-21 00:50 41.66150 -91.68298 38150 ft 399 kts 268°
2026-04-21 00:51 41.65377 -91.75655 38150 ft 399 kts 268°
2026-04-21 00:51 41.64730 -91.81771 38150 ft 399 kts 268°
2026-04-21 00:52 41.63948 -91.89127 38148 ft 399 kts 268°
2026-04-21 00:52 41.63161 -91.96474 38139 ft 399 kts 268°
2026-04-21 00:53 41.62371 -92.03818 38132 ft 399 kts 268°
2026-04-21 00:53 41.61576 -92.11154 38132 ft 398 kts 268°
2026-04-21 00:54 41.60776 -92.18487 38119 ft 398 kts 267°
2026-04-21 00:54 41.59979 -92.25760 38124 ft 398 kts 267°
2026-04-21 00:55 41.59171 -92.33084 38103 ft 398 kts 267°
2026-04-21 00:55 41.58359 -92.40401 38106 ft 397 kts 267°
2026-04-21 00:56 41.57548 -92.47663 38099 ft 397 kts 267°
2026-04-21 00:56 41.56728 -92.54964 38098 ft 397 kts 267°
2026-04-21 00:57 41.55904 -92.62255 38096 ft 397 kts 267°
2026-04-21 00:57 41.55076 -92.69549 38081 ft 397 kts 267°
2026-04-21 00:58 41.54243 -92.76834 38087 ft 397 kts 267°
2026-04-21 00:58 41.53409 -92.84092 38072 ft 397 kts 267°
2026-04-21 00:59 41.52564 -92.91409 38049 ft 398 kts 266°
2026-04-21 00:59 41.51719 -92.98670 38055 ft 399 kts 266°
2026-04-21 01:00 41.50863 -93.05991 38045 ft 400 kts 266°
2026-04-21 01:00 41.50000 -93.13336 38063 ft 401 kts 266°
2026-04-21 01:01 41.49129 -93.20704 38067 ft 402 kts 266°
2026-04-21 01:01 41.48251 -93.28085 38048 ft 403 kts 266°
2026-04-21 01:02 41.47372 -93.35428 38065 ft 403 kts 266°
2026-04-21 01:02 41.46484 -93.42812 38056 ft 404 kts 266°
2026-04-21 01:03 41.45590 -93.50209 38059 ft 404 kts 266°
2026-04-21 01:03 41.44696 -93.57565 38043 ft 399 kts 266°
2026-04-21 01:04 41.43849 -93.64709 38044 ft 391 kts 270°
2026-04-21 01:04 41.44068 -93.71872 38052 ft 392 kts 278°
2026-04-21 01:05 41.44541 -93.79162 38054 ft 397 kts 278°
2026-04-21 01:05 41.44990 -93.86518 38035 ft 399 kts 277°
2026-04-21 01:06 41.45406 -93.93906 38041 ft 400 kts 277°
2026-04-21 01:06 41.45806 -94.01305 38032 ft 400 kts 277°
2026-04-21 01:07 41.46002 -94.04980 37558 ft 406 kts 277°
2026-04-21 01:07 41.46201 -94.08734 36954 ft 402 kts 277°
2026-04-21 01:07 41.46394 -94.12424 36326 ft 395 kts 277°
2026-04-21 01:07 41.46583 -94.16068 35580 ft 392 kts 277°
2026-04-21 01:08 41.46770 -94.19683 34785 ft 389 kts 277°
2026-04-21 01:08 41.46956 -94.23280 34017 ft 388 kts 277°
2026-04-21 01:08 41.47139 -94.26827 33128 ft 387 kts 276°
2026-04-21 01:08 41.47322 -94.30399 32335 ft 385 kts 276°
2026-04-21 01:09 41.47501 -94.33924 31760 ft 378 kts 276°
2026-04-21 01:09 41.47676 -94.37408 31170 ft 376 kts 276°
2026-04-21 01:09 41.47854 -94.40922 30622 ft 387 kts 276°
2026-04-21 01:09 41.48039 -94.44564 30001 ft 398 kts 276°
2026-04-21 01:10 41.48220 -94.48216 29266 ft 391 kts 276°
2026-04-21 01:10 41.48394 -94.51788 28636 ft 380 kts 276°
2026-04-21 01:10 41.48562 -94.55270 28026 ft 371 kts 276°
2026-04-21 01:10 41.48725 -94.58661 27428 ft 363 kts 276°
2026-04-21 01:11 41.48886 -94.61987 26840 ft 357 kts 276°
2026-04-21 01:11 41.49045 -94.65285 26263 ft 354 kts 276°
2026-04-21 01:11 41.49200 -94.68512 25694 ft 353 kts 276°
2026-04-21 01:11 41.49359 -94.71820 25116 ft 363 kts 276°
2026-04-21 01:12 41.49521 -94.75216 24513 ft 369 kts 275°
2026-04-21 01:12 41.49681 -94.78629 23891 ft 364 kts 275°
2026-04-21 01:12 41.49836 -94.81977 23225 ft 357 kts 275°
2026-04-21 01:12 41.49987 -94.85255 22571 ft 350 kts 275°
2026-04-21 01:13 41.50132 -94.88423 21995 ft 342 kts 275°
2026-04-21 01:13 41.50275 -94.91560 21413 ft 335 kts 275°
2026-04-21 01:13 41.50415 -94.94639 20858 ft 331 kts 275°
2026-04-21 01:13 41.50555 -94.97711 20293 ft 331 kts 275°
2026-04-21 01:14 41.50694 -95.00782 19742 ft 334 kts 275°
2026-04-21 01:14 41.50833 -95.03880 19187 ft 341 kts 274°
2026-04-21 01:14 41.50975 -95.07056 18600 ft 343 kts 274°
2026-04-21 01:14 41.51114 -95.10207 17965 ft 336 kts 274°
2026-04-21 01:15 41.51247 -95.13286 17336 ft 329 kts 274°
2026-04-21 01:15 41.51061 -95.16327 16515 ft 331 kts 259°
2026-04-21 01:15 41.50491 -95.19267 15886 ft 325 kts 258°
2026-04-21 01:15 41.49903 -95.22141 15331 ft 318 kts 257°
2026-04-21 01:16 41.49321 -95.24955 14792 ft 312 kts 258°
2026-04-21 01:16 41.48905 -95.27727 13995 ft 310 kts 268°
2026-04-21 01:16 41.48771 -95.30633 13105 ft 314 kts 269°
2026-04-21 01:16 41.48672 -95.33514 12447 ft 308 kts 269°
2026-04-21 01:17 41.48576 -95.36365 11644 ft 308 kts 269°
2026-04-21 01:17 41.48475 -95.39209 10969 ft 304 kts 269°
2026-04-21 01:17 41.48370 -95.41992 10490 ft 296 kts 268°
2026-04-21 01:17 41.48264 -95.44635 10385 ft 274 kts 268°
2026-04-21 01:18 41.48164 -95.47054 10254 ft 255 kts 268°
2026-04-21 01:18 41.48067 -95.49384 10147 ft 249 kts 269°
2026-04-21 01:18 41.47971 -95.51707 9866 ft 253 kts 268°
2026-04-21 01:18 41.47872 -95.54059 9514 ft 254 kts 268°
2026-04-21 01:19 41.47772 -95.56423 9047 ft 254 kts 267°
2026-04-21 01:19 41.47672 -95.58755 8593 ft 249 kts 266°
2026-04-21 01:19 41.47586 -95.61040 8142 ft 245 kts 265°
2026-04-21 01:19 41.47471 -95.63296 7700 ft 243 kts 265°
2026-04-21 01:20 41.47371 -95.65537 7262 ft 241 kts 265°
2026-04-21 01:20 41.47276 -95.67764 6836 ft 240 kts 264°
2026-04-21 01:20 41.47183 -95.69979 6410 ft 239 kts 263°
2026-04-21 01:20 41.47085 -95.72185 5981 ft 237 kts 263°
2026-04-21 01:21 41.46987 -95.74345 5718 ft 233 kts 262°
2026-04-21 01:21 41.46888 -95.76548 5165 ft 240 kts 261°
2026-04-21 01:21 41.46774 -95.78777 4644 ft 242 kts 262°
2026-04-21 01:21 41.46682 -95.80979 4093 ft 240 kts 261°
2026-04-21 01:22 41.46619 -95.83190 3634 ft 234 kts 259°
2026-04-21 01:22 41.46514 -95.85294 3406 ft 221 kts 258°
2026-04-21 01:22 41.46412 -95.87284 3194 ft 208 kts 259°
2026-04-21 01:22 41.46326 -95.89105 3213 ft 186 kts 258°
2026-04-21 01:23 41.46252 -95.90746 3128 ft 171 kts 258°
2026-04-21 01:23 41.46180 -95.92277 2969 ft 162 kts 257°
2026-04-21 01:23 41.46111 -95.93798 2962 ft 167 kts 257°
2026-04-21 01:23 41.46052 -95.95333 2912 ft 164 kts 256°
2026-04-21 01:24 41.45980 -95.96823 2888 ft 159 kts 255°
2026-04-21 01:24 41.45903 -95.98293 2905 ft 158 kts 254°
2026-04-21 01:24 41.45577 -95.99574 2901 ft 137 kts 232°
2026-04-21 01:24 41.44980 -96.00497 2897 ft 133 kts 217°
2026-04-21 01:25 41.44140 -96.01072 2913 ft 140 kts 197°
2026-04-21 01:25 41.43172 -96.01171 2892 ft 141 kts 180°
2026-04-21 01:25 41.42253 -96.00710 2928 ft 138 kts 160°
2026-04-21 01:25 41.41456 -96.00088 2901 ft 129 kts 162°
2026-04-21 01:26 41.40742 -95.99481 2895 ft 128 kts 160°
2026-04-21 01:26 41.39975 -95.98784 2903 ft 131 kts 159°
2026-04-21 01:26 41.39219 -95.98075 2832 ft 134 kts 158°
2026-04-21 01:26 41.38458 -95.97353 2678 ft 134 kts 158°
2026-04-21 01:27 41.37707 -95.96637 2505 ft 131 kts 157°
2026-04-21 01:27 41.36971 -95.95935 2347 ft 129 kts 157°
2026-04-21 01:27 41.36244 -95.95245 2160 ft 128 kts 155°
2026-04-21 01:27 41.35521 -95.94555 2020 ft 129 kts 156°
2026-04-21 01:28 41.34785 -95.93868 1848 ft 132 kts 155°
2026-04-21 01:28 41.34033 -95.93139 1688 ft 136 kts 148°
2026-04-21 01:28 41.33268 -95.92401 1476 ft 138 kts 148°
2026-04-21 01:28 41.32467 -95.91637 1306 ft 144 kts 145°
2026-04-21 01:29 41.31656 -95.90849 1093 ft 145 kts 149°
2026-04-21 01:29 41.30842 -95.90088 995 ft 133 kts 149°
2026-04-21 01:29 41.30214 -95.89498 981 ft 81 kts 144°
2026-04-21 01:29 41.29933 -95.89231 984 ft 18 kts 144°
2026-04-21 01:30 41.29830 -95.89135 991 ft 18 kts 144°
2026-04-21 01:30 41.29732 -95.89139 989 ft 16 kts 231°
2026-04-21 01:30 41.29751 -95.89240 985 ft 13 kts 324°
2026-04-21 01:30 41.29823 -95.89308 986 ft 13 kts 324°
2026-04-21 01:31 41.29893 -95.89375 985 ft 12 kts 324°
2026-04-21 01:31 41.29962 -95.89439 988 ft 12 kts 324°
2026-04-21 01:31 41.30030 -95.89504 989 ft 13 kts 324°
2026-04-21 01:31 41.30089 -95.89579 982 ft 8 kts 262°
2026-04-21 01:32 41.30033 -95.89609 986 ft 11 kts 187°
2026-04-21 01:32 41.30018 -95.89683 986 ft 11 kts 329°
2026-04-21 01:32 41.30103 -95.89687 986 ft 14 kts
2026-04-21 01:32 41.30144 -95.89746 987 ft 3 kts 255°
2026-04-21 01:33 41.30138 -95.89774 988 ft 3 kts 249°
2026-04-21 01:33 41.30133 -95.89790 986 ft 1 kts 249°
2026-04-21 01:33 41.30133 -95.89792 986 ft 0 kts 249°